STARLINK AA

Last updated on Sat Jul 15 2023 00:02:05 GMT+0000 (Coordinated Universal Time)

1 57242U 23094AA 23195.75001157 -.01071209 34170-3 -30729-2 0 9997 2 57242 42.9952 276.0508 0024217 200.1653 240.6622 15.91711583 1301

Satellite not in orbit

STARLINK AA